N4NVD-13 Weather Reports


Display with metric or nautical units.
time (UTC)temp
F
wind
direction
speed
MPH
gust
MPH
rain 1hr
in
rain 24hr
in
rain mn
in
humidity
%
barometer
mb
20260905120415 72 286 0.0 0.0 0.00 0.00 0.00 99 1013.3
20260905115905 72 286 0.0 0.0 0.00 0.00 0.00 99 1013.3
20260905115404 72 286 0.0 0.0 0.00 0.00 0.00 99 1013.4
20260905114859 72 286 0.0 0.0 0.00 0.00 0.00 99 1013.2
20260905114359 72 286 0.0 0.0 0.00 0.00 0.00 99 1013.2
20260905113858 73 286 0.0 1.0 0.00 0.00 0.00 99 1013.2
20260905113354 73 279 0.0 0.0 0.00 0.00 0.00 99 1012.9
20260905112849 73 270 0.0 0.0 0.00 0.00 0.00 99 1013.0
20260905112344 73 270 0.0 0.0 0.00 0.00 0.00 99 1013.0
20260905111839 73 270 0.0 0.0 0.00 0.00 0.00 99 1012.7
20260905111339 73 270 0.0 0.0 0.00 0.00 0.00 99 1012.9
20260905110838 73 270 0.0 0.0 0.00 0.00 0.00 99 1012.7
20260905110332 73 278 0.0 0.0 0.00 0.00 0.00 99 1012.6
20260905105828 73 278 0.0 1.0 0.00 0.00 0.00 99 1012.9
20260905105327 73 270 0.0 1.0 0.00 0.00 0.00 99 1012.9
20260905104821 73 0 0.0 0.0 0.00 0.00 0.00 99 1012.9
20260905104318 73 0 0.0 0.0 0.00 0.00 0.00 99 1012.7
20260905103817 73 0 0.0 0.0 0.00 0.00 0.00 99 1012.7
20260905103313 73 0 0.0 0.0 0.00 0.00 0.00 99 1012.5
20260905102809 73 0 0.0 0.0 0.00 0.00 0.00 99 1012.6
20260905102306 73 0 0.0 0.0 0.00 0.00 0.00 99 1012.5
20260905101805 73 0 0.0 0.0 0.00 0.00 0.00 99 1012.5
20260905101304 73 0 0.0 0.0 0.00 0.00 0.00 99 1012.6
20260905100758 74 0 0.0 0.0 0.00 0.00 0.00 99 1012.4
20260905100254 74 0 0.0 1.0 0.00 0.00 0.00 99 1012.7
20260905095753 74 23 0.0 2.0 0.00 0.00 0.00 99 1012.5
20260905095247 73 286 0.0 0.0 0.00 0.00 0.00 99 1012.9
20260905094742 74 286 0.0 0.0 0.00 0.00 0.00 99 1012.5
20260905094237 74 286 0.0 0.0 0.00 0.00 0.00 99 1012.6
20260905093731 74 286 0.0 0.0 0.00 0.00 0.00 99 1012.6
20260905093227 74 286 0.0 1.0 0.00 0.00 0.00 99 1012.5
20260905092722 74 8 0.0 0.0 0.00 0.00 0.00 99 1012.5
20260905092217 74 8 0.0 1.0 0.00 0.00 0.00 99 1012.9
20260905091717 75 15 0.0 0.0 0.00 0.00 0.00 99 1012.9
20260905091212 74 23 0.0 0.0 0.00 0.00 0.00 99 1012.6
20260905090711 74 60 0.0 2.0 0.00 0.00 0.00 99 1012.6
20260905090207 74 90 0.0 0.0 0.00 0.00 0.00 99 1012.5
20260905085706 74 157 0.0 0.0 0.00 0.00 0.00 99 1012.7
20260905085201 74 157 0.0 0.0 0.00 0.00 0.00 99 1013.0
20260905084700 74 157 0.0 0.0 0.00 0.00 0.00 99 1012.7
20260905084155 75 157 0.0 0.0 0.00 0.00 0.00 99 1012.9
20260905083649 75 157 0.0 0.0 0.00 0.00 0.00 99 1012.2
20260905083146 75 7 0.0 0.0 0.00 0.00 0.00 99 1012.6
20260905082642 75 7 0.0 0.0 0.00 0.00 0.00 99 1012.5
20260905082132 75 7 0.0 0.0 0.00 0.00 0.00 99 1012.7
20260905081631 75 7 0.0 1.0 0.00 0.00 0.00 99 1012.9
20260905081126 75 346 1.0 2.0 0.00 0.00 0.00 99 1012.6
20260905080620 75 0 0.0 1.0 0.00 0.00 0.00 99 1012.5
20260905080115 75 0 0.0 1.0 0.00 0.00 0.00 99 1012.5
20260905075614 75 90 0.0 0.0 0.00 0.00 0.00 99 1012.4
20260905075114 76 90 0.0 2.0 0.00 0.00 0.00 99 1012.3
20260905074613 76 15 0.0 1.0 0.00 0.00 0.00 99 1012.4
20260905074109 76 20 0.0 0.0 0.00 0.00 0.00 99 1012.6
20260905073605 76 74 0.0 1.0 0.00 0.00 0.00 99 1012.6
20260905073100 76 83 0.0 0.0 0.00 0.00 0.00 99 1012.6
20260905072559 75 261 0.0 0.0 0.00 0.00 0.00 99 1012.6
20260905072055 76 261 0.0 0.0 0.00 0.00 0.00 99 1012.5
20260905071552 76 261 0.0 0.0 0.00 0.00 0.00 99 1012.5
20260905071046 76 261 0.0 0.0 0.00 0.00 0.00 99 1012.9
20260905070541 76 261 0.0 0.0 0.00 0.00 0.00 99 1012.6
20260905070038 76 270 0.0 0.0 0.00 0.00 0.00 99 1013.0
20260905065535 76 254 0.0 0.0 0.00 0.00 0.00 98 1013.2
20260905065031 76 254 0.0 0.0 0.00 0.00 0.00 98 1013.1
20260905064530 77 254 0.0 0.0 0.00 0.00 0.00 98 1013.4
20260905064026 76 254 0.0 0.0 0.00 0.00 0.00 98 1013.1
20260905063525 77 254 0.0 0.0 0.00 0.00 0.00 97 1013.1
20260905063021 77 254 0.0 0.0 0.00 0.00 0.00 97 1013.2
20260905062520 77 254 0.0 1.0 0.00 0.00 0.00 97 1013.3
20260905062016 77 261 0.0 0.0 0.00 0.00 0.00 96 1013.2
20260905061511 78 262 0.0 0.0 0.00 0.00 0.00 96 1013.0
20260905061009 78 262 0.0 0.0 0.00 0.00 0.00 95 1013.2
20260905060506 78 262 0.0 1.0 0.00 0.00 0.00 95 1013.3
20260905060001 78 188 0.0 0.0 0.00 0.00 0.00 94 1013.2
20260905055500 78 234 1.0 1.0 0.00 0.00 0.00 94 1013.2
20260905054954 78 98 0.0 0.0 0.00 0.00 0.00 94 1013.2
20260905054450 78 145 0.0 2.0 0.00 0.00 0.00 94 1013.1
20260905053945 78 29 0.0 0.0 0.00 0.00 0.00 94 1013.2
20260905053440 78 29 0.0 0.0 0.00 0.00 0.00 94 1013.3
20260905052936 78 151 0.0 0.0 0.00 0.00 0.00 94 1013.3
20260905052435 79 151 0.0 0.0 0.00 0.00 0.00 94 1013.3
20260905051935 79 151 0.0 2.0 0.00 0.00 0.00 94 1013.2
20260905051430 78 0 0.0 0.0 0.00 0.00 0.00 94 1013.1
20260905050928 78 15 0.0 0.0 0.00 0.00 0.00 93 1013.2
20260905050423 79 15 0.0 0.0 0.00 0.00 0.00 93 1013.3
20260905045918 79 15 0.0 0.0 0.00 0.00 0.00 93 1013.2
20260905045408 79 74 0.0 1.0 0.00 0.00 0.00 92 1013.2
20260905044903 79 69 0.0 2.0 0.00 0.00 0.00 92 1013.2
20260905044358 79 90 0.0 3.0 0.00 0.00 0.00 92 1013.2
20260905043857 79 97 0.0 1.0 0.00 0.00 0.00 92 1013.2
20260905043352 79 114 0.0 0.0 0.00 0.00 0.00 92 1013.1
20260905042847 79 114 0.0 0.0 0.00 0.00 0.00 92 1013.2
20260905042346 79 148 2.0 2.0 0.00 0.00 0.00 92 1013.3
20260905041841 79 148 0.0 2.0 0.00 0.00 0.00 92 1013.5
20260905041337 79 270 0.0 0.0 0.00 0.00 0.00 92 1013.3
20260905040832 79 135 0.0 2.0 0.00 0.00 0.00 92 1013.4
20260905040331 79 114 0.0 1.0 0.00 0.00 0.00 92 1013.2
20260905035831 79 99 0.0 1.0 0.00 0.00 0.00 92 1013.2
20260905035326 79 106 0.0 2.0 0.00 0.00 0.00 92 1013.1
20260905034823 79 106 1.0 2.0 0.00 0.00 0.00 93 1013.2
20260905034318 78 8 0.0 0.0 0.00 0.00 0.00 93 1013.3
20260905033816 78 8 0.0 0.0 0.00 0.00 0.00 93 1013.4
20260905033312 78 8 0.0 0.0 0.00 0.00 0.00 92 1013.5
20260905032811 78 8 0.0 0.0 0.00 0.00 0.00 92 1013.4
20260905032307 79 8 0.0 0.0 0.00 0.00 0.00 92 1013.4
20260905031756 79 8 0.0 0.0 0.00 0.00 0.00 91 1013.4
20260905031253 79 8 0.0 0.0 0.00 0.00 0.00 91 1013.3
20260905030747 79 8 0.0 0.0 0.00 0.00 0.00 91 1013.3
20260905030242 80 8 0.0 0.0 0.00 0.00 0.00 90 1013.2
20260905025737 80 8 0.0 0.0 0.00 0.00 0.00 89 1013.0
20260905025232 80 8 0.0 0.0 0.00 0.00 0.00 87 1013.2
20260905024728 80 8 0.0 0.0 0.00 0.00 0.00 87 1012.9
20260905024224 80 8 0.0 0.0 0.00 0.00 0.00 87 1013.0
20260905023724 80 8 0.0 0.0 0.00 0.00 0.00 86 1013.1
20260905023219 81 8 0.0 1.0 0.00 0.00 0.00 86 1013.0
20260905022717 81 66 0.0 0.0 0.00 0.00 0.00 85 1013.0
20260905022213 81 66 0.0 0.0 0.00 0.00 0.00 84 1012.6
20260905021707 82 66 0.0 0.0 0.00 0.00 0.00 84 1012.6
20260905021203 82 66 0.0 1.0 0.00 0.00 0.00 83 1012.5
20260905020657 82 8 0.0 1.0 0.00 0.00 0.00 83 1012.6
20260905020152 82 66 0.0 0.0 0.00 0.00 0.00 81 1012.5
20260905015650 83 66 0.0 0.0 0.00 0.00 0.00 81 1012.4
20260905015146 83 66 0.0 1.0 0.00 0.00 0.00 80 1012.3
20260905014644 84 82 1.0 1.0 0.00 0.00 0.00 79 1012.1
20260905014140 84 90 0.0 2.0 0.00 0.00 0.00 78 1012.3
20260905013637 84 111 0.0 1.0 0.00 0.00 0.00 78 1012.2
20260905013132 84 74 0.0 2.0 0.00 0.00 0.00 77 1012.3
20260905012627 85 106 0.0 2.0 0.00 0.00 0.00 76 1012.3
20260905012123 85 109 2.0 2.0 0.00 0.00 0.00 76 1012.2
20260905011619 86 154 0.0 2.0 0.00 0.00 0.00 75 1011.9
20260905011115 86 98 0.0 3.0 0.00 0.00 0.00 75 1012.0
20260905010615 86 81 0.0 2.0 0.00 0.00 0.00 75 1012.2
20260905010111 86 79 0.0 2.0 0.00 0.00 0.00 75 1011.9
20260905005606 87 82 1.0 3.0 0.00 0.00 0.00 74 1011.7
20260905005101 87 101 0.0 3.0 0.00 0.00 0.00 73 1011.8
20260905004556 87 84 0.0 3.0 0.00 0.00 0.00 72 1011.8
20260905004051 88 98 0.0 3.0 0.00 0.00 0.00 71 1011.6
20260905003547 89 114 0.0 2.0 0.00 0.00 0.00 69 1011.5
20260905003042 89 120 0.0 2.0 0.00 0.00 0.00 68 1011.4
20260905002538 90 127 2.0 4.0 0.00 0.00 0.00 67 1011.7
20260905002038 90 154 2.0 5.0 0.00 0.00 0.00 67 1011.4
20260905001532 90 114 1.0 5.0 0.00 0.00 0.00 66 1011.3
20260905001027 91 164 2.0 4.0 0.00 0.00 0.00 65 1011.5
20260905000522 91 111 1.0 5.0 0.00 0.00 0.00 65 1011.4
20260905000019 92 98 0.0 3.0 0.00 0.00 0.00 64 1011.4
20260904235513 92 177 3.0 4.0 0.00 0.00 0.00 64 1011.4
20260904235012 91 154 0.0 5.0 0.00 0.00 0.00 65 1011.5
20260904234507 92 173 0.0 5.0 0.00 0.00 0.00 65 1011.5
20260904234003 92 81 0.0 5.0 0.00 0.00 0.00 66 1011.3
20260904233458 92 148 3.0 5.0 0.00 0.00 0.00 66 1011.3
20260904232954 93 95 2.0 6.0 0.00 0.00 0.00 65 1011.5
20260904232450 92 142 2.0 5.0 0.00 0.00 0.00 66 1011.4
20260904231947 92 188 2.0 5.0 0.00 0.00 0.00 66 1011.3
20260904231442 92 105 3.0 6.0 0.00 0.00 0.00 66 1011.4
20260904230937 92 209 2.0 6.0 0.00 0.00 0.00 65 1011.4
20260904230436 92 34 2.0 3.0 0.00 0.00 0.00 63 1011.4
20260904225931 91 132 0.0 2.0 0.00 0.00 0.00 65 1011.7
20260904225429 90 75 0.0 1.0 0.00 0.00 0.00 67 1011.5
20260904224923 89 90 0.0 2.0 0.00 0.00 0.00 68 1011.4
20260904224419 89 81 1.0 4.0 0.00 0.00 0.00 68 1011.4
20260904223919 89 162 0.0 3.0 0.00 0.00 0.00 67 1011.7
20260904223418 89 152 0.0 5.0 0.00 0.00 0.00 67 1011.6
20260904222914 89 160 1.0 6.0 0.00 0.00 0.00 66 1011.9
20260904222409 89 150 0.0 5.0 0.00 0.00 0.00 66 1011.6
20260904221909 90 158 4.0 5.0 0.00 0.00 0.00 66 1011.6
20260904221403 90 114 1.0 5.0 0.00 0.00 0.00 66 1011.5
20260904220859 90 107 2.0 2.0 0.00 0.00 0.00 66 1011.7
20260904220358 90 152 5.0 5.0 0.00 0.00 0.00 66 1011.5
20260904215854 92 201 3.0 5.0 0.00 0.00 0.00 64 1011.8
20260904215349 93 159 3.0 9.0 0.00 0.00 0.00 63 1012.0
20260904214845 92 173 4.0 9.0 0.00 0.00 0.00 64 1012.1
20260904214340 92 129 0.0 7.0 0.00 0.00 0.00 64 1012.0
20260904213839 93 101 3.0 5.0 0.00 0.00 0.00 63 1012.1
20260904213333 93 165 3.0 5.0 0.00 0.00 0.00 63 1012.1
20260904212829 93 142 7.0 7.0 0.00 0.00 0.00 63 1012.1
20260904212324 92 102 2.0 11.0 0.00 0.00 0.00 66 1012.1
20260904211819 90 69 3.0 4.0 0.00 0.00 0.00 69 1012.0
20260904211314 90 97 0.0 7.0 0.00 0.00 0.00 69 1012.2
20260904210808 90 90 3.0 6.0 0.00 0.00 0.00 67 1012.5
20260904210303 90 119 5.0 7.0 0.00 0.00 0.00 66 1012.5
20260904205759 91 59 7.0 9.0 0.00 0.00 0.00 65 1012.7
20260904205254 93 90 2.0 5.0 0.00 0.00 0.00 64 1012.6
20260904204751 91 99 0.0 8.0 0.00 0.00 0.00 68 1012.4
20260904204247 91 23 3.0 9.0 0.00 0.00 0.00 70 1012.3
20260904203743 91 79 8.0 8.0 0.00 0.00 0.00 71 1012.9
20260904203239 91 113 5.0 10.0 0.00 0.00 0.00 71 1012.9
20260904202735 90 104 3.0 10.0 0.00 0.00 0.00 72 1012.5
20260904202231 91 137 0.0 5.0 0.00 0.00 0.00 71 1012.9
20260904201726 90 98 5.0 11.0 0.00 0.00 0.00 73 1012.7
20260904201225 90 140 4.0 8.0 0.00 0.00 0.00 73 1012.7
20260904200720 90 131 0.0 9.0 0.00 0.00 0.00 74 1012.9
20260904200215 90 100 5.0 8.0 0.00 0.00 0.00 74 1012.9
20260904195714 90 127 0.0 6.0 0.00 0.00 0.00 75 1012.9
20260904195213 89 98 5.0 6.0 0.00 0.00 0.00 75 1012.9
20260904194708 89 157 1.0 9.0 0.00 0.00 0.00 75 1013.0
20260904194207 89 95 2.0 6.0 0.00 0.00 0.00 76 1013.1
20260904193703 89 116 3.0 8.0 0.00 0.00 0.00 76 1012.9
20260904193159 88 128 4.0 7.0 0.00 0.00 0.00 76 1013.2
20260904192659 88 104 3.0 12.0 0.00 0.00 0.00 75 1013.1
20260904192149 89 105 0.0 5.0 0.00 0.00 0.00 72 1013.2
20260904191646 88 90 3.0 7.0 0.00 0.00 0.00 71 1013.2
20260904191142 89 114 3.0 6.0 0.00 0.00 0.00 71 1013.4
20260904190637 89 83 7.0 7.0 0.00 0.00 0.00 69 1013.5
20260904190132 88 103 2.0 8.0 0.00 0.00 0.00 71 1013.6
20260904185630 89 139 6.0 8.0 0.00 0.00 0.00 72 1013.5
20260904185124 89 143 2.0 11.0 0.00 0.00 0.00 73 1013.7
20260904184623 89 96 2.0 7.0 0.00 0.00 0.00 73 1013.4
20260904184119 91 90 3.0 8.0 0.00 0.00 0.00 71 1013.7
20260904183614 92 195 0.0 6.0 0.00 0.00 0.00 60 1013.9
20260904183109 93 151 0.0 4.0 0.00 0.00 0.00 60 1013.5
20260904182604 93 125 3.0 7.0 0.00 0.00 0.00 61 1013.7
20260904182058 93 169 5.0 8.0 0.00 0.00 0.00 61 1013.9
20260904181554 93 147 6.0 10.0 0.00 0.00 0.00 61 1013.9
20260904181048 93 204 5.0 5.0 0.00 0.00 0.00 62 1013.9
20260904180543 93 180 1.0 11.0 0.00 0.00 0.00 61 1013.9
20260904180038 93 152 3.0 7.0 0.00 0.00 0.00 61 1013.8
20260904175532 92 77 2.0 6.0 0.00 0.00 0.00 66 1013.7
20260904175031 91 84 2.0 7.0 0.00 0.00 0.00 69 1013.9
20260904174526 92 138 3.0 4.0 0.00 0.00 0.00 66 1014.0
20260904174023 93 66 3.0 5.0 0.00 0.00 0.00 68 1013.8
20260904173522 93 210 3.0 8.0 0.00 0.00 0.00 67 1014.0
20260904173018 93 90 3.0 4.0 0.00 0.00 0.00 68 1014.2
20260904172514 92 223 4.0 7.0 0.00 0.00 0.00 69 1014.2
20260904172013 92 157 2.0 2.0 0.00 0.00 0.00 70 1014.3
20260904171509 92 139 3.0 4.0 0.00 0.00 0.00 71 1014.3
20260904171004 91 158 5.0 6.0 0.00 0.00 0.00 72 1014.7
20260904170459 91 180 2.0 4.0 0.00 0.00 0.00 71 1014.7
20260904165955 91 133 3.0 6.0 0.00 0.00 0.00 72 1014.7
20260904165454 92 176 0.0 11.0 0.00 0.00 0.00 70 1014.7
20260904164953 92 90 1.0 6.0 0.00 0.00 0.00 73 1014.7
20260904164448 91 94 2.0 5.0 0.00 0.00 0.00 74 1014.6
20260904163944 91 75 5.0 5.0 0.00 0.00 0.00 73 1014.7
20260904163444 91 225 2.0 4.0 0.00 0.00 0.00 77 1014.6
20260904162938 89 270 0.0 4.0 0.00 0.00 0.00 78 1014.8
20260904162433 88 228 4.0 8.0 0.00 0.00 0.00 80 1014.7
20260904161929 87 148 2.0 3.0 0.00 0.00 0.00 81 1014.5
20260904161424 87 218 3.0 4.0 0.00 0.00 0.00 82 1014.5
20260904160920 87 236 3.0 5.0 0.00 0.00 0.00 82 1014.5
20260904160414 87 228 0.0 3.0 0.00 0.00 0.00 83 1014.6
20260904155909 86 232 0.0 2.0 0.00 0.00 0.00 86 1014.6
20260904155404 86 232 3.0 5.0 0.00 0.00 0.00 84 1014.4
20260904154903 86 270 4.0 4.0 0.00 0.00 0.00 84 1014.6
20260904154357 86 230 0.0 3.0 0.00 0.00 0.00 83 1014.5
20260904153853 86 237 3.0 5.0 0.00 0.00 0.00 85 1014.6
20260904153348 86 231 4.0 7.0 0.00 0.00 0.00 86 1014.5
20260904152845 86 236 3.0 3.0 0.00 0.00 0.00 86 1014.7
20260904152344 86 240 4.0 8.0 0.00 0.00 0.00 85 1014.6
20260904151839 86 240 0.0 2.0 0.00 0.00 0.00 88 1014.7
20260904151338 85 161 2.0 3.0 0.00 0.00 0.00 89 1014.5
20260904150834 85 159 0.0 5.0 0.00 0.00 0.00 88 1014.4
20260904150329 86 209 3.0 7.0 0.00 0.00 0.00 91 1014.3
20260904145827 86 156 0.0 4.0 0.00 0.00 0.00 90 1014.2
20260904145324 85 77 0.0 5.0 0.00 0.00 0.00 92 1014.3
20260904144819 86 237 3.0 4.0 0.00 0.00 0.00 92 1014.6
20260904144314 85 216 0.0 3.0 0.00 0.00 0.00 93 1014.3
20260904143809 83 173 0.0 3.0 0.00 0.00 0.00 97 1014.4
20260904143306 82 212 0.0 3.0 0.00 0.00 0.00 97 1014.3
20260904142802 82 114 0.0 4.0 0.00 0.00 0.00 98 1014.4
20260904142258 82 102 2.0 3.0 0.00 0.00 0.00 99 1014.2
20260904141752 82 90 0.0 3.0 0.00 0.00 0.00 99 1014.4
20260904141248 81 79 2.0 3.0 0.00 0.00 0.00 99 1014.2
20260904140743 81 157 2.0 2.0 0.00 0.00 0.00 99 1014.3
20260904140239 81 53 0.0 2.0 0.00 0.00 0.00 99 1014.0
20260904135737 80 90 0.0 2.0 0.00 0.00 0.00 99 1014.0
20260904135232 80 38 2.0 2.0 0.00 0.00 0.00 99 1013.9
20260904134729 80 77 1.0 3.0 0.00 0.00 0.00 99 1014.0
20260904134228 80 83 0.0 1.0 0.00 0.00 0.00 99 1013.8
20260904133723 80 111 0.0 1.0 0.00 0.00 0.00 99 1013.7
20260904133220 80 106 0.0 3.0 0.00 0.00 0.00 99 1013.7
20260904132718 79 66 0.0 2.0 0.00 0.00 0.00 99 1013.6
20260904132214 79 81 1.0 3.0 0.00 0.00 0.00 99 1013.6
20260904131713 79 90 0.0 2.0 0.00 0.00 0.00 99 1014.0
20260904131208 79 90 0.0 3.0 0.00 0.00 0.00 99 1013.6
20260904130703 79 96 2.0 3.0 0.00 0.00 0.00 99 1013.5
20260904130202 79 90 0.0 0.0 0.00 0.00 0.00 99 1013.6
20260904125659 79 82 0.0 2.0 0.00 0.00 0.00 99 1013.5
20260904125154 79 63 0.0 2.0 0.00 0.00 0.00 99 1013.5
20260904124649 79 63 2.0 3.0 0.00 0.00 0.00 99 1013.3
20260904124145 79 108 2.0 3.0 0.00 0.00 0.00 99 1013.6
20260904123645 79 90 0.0 2.0 0.00 0.00 0.00 99 1013.3
20260904123141 79 90 0.0 1.0 0.00 0.00 0.00 99 1013.2
20260904122641 79 84 2.0 2.0 0.00 0.00 0.00 99 1013.2
20260904122136 78 90 1.0 3.0 0.00 0.00 0.00 99 1013.2
20260904121631 78 29 1.0 3.0 0.00 0.00 0.00 99 1013.2
20260904121127 79 16 0.0 3.0 0.00 0.00 0.00 99 1013.1